Regional Weather Roundup
Issued by NWS

Home | Current Version | Previous Version | Text Only | Print | Product List | Glossary On
Versions: 1 2 3 4 5 6 7 8 9 10 11 12 13 14 15 16 17 18 19 20 21 22 23 24 25 26 27 28 29 30 31 32 33 34 35 36 37 38 39 40 41 42 43 44 45 46 47 48 49 50
000
ASUS43 KMKX 281500
RWRWI

WISCONSIN REGIONAL WEATHER ROUNDUP
NATIONAL WEATHER SERVICE MILWAUKEE/SULLIVAN WI
1000 AM CDT FRI AUG 28 2015

NOTE: "FAIR" INDICATES FEW OR NO CLOUDS BELOW 12,000 FEET WITH NO
SIGNIFICANT WEATHER AND/OR OBSTRUCTIONS TO VISIBILITY.

WIZ001-002-006>008-014>016-023>028-281600-
NORTHWEST WISCONSIN

CITY           SKY/WX    TMP DP  RH WIND       PRES   REMARKS
SUPERIOR ARPT  CLOUDY    64  61  88 SW10      29.97F
ASHLAND        CLOUDY    67  63  87 S8        29.99S
HAYWARD        PTSUNNY   67  60  78 SW14      30.03R
SIREN          PTSUNNY   68  62  79 SW9G16    30.02R
CUMBERLAND     CLOUDY    63  61  94 SW6       30.05S
RICE LAKE      CLOUDY    66  61  84 S8        30.06S
CHETEK         CLOUDY   N/A N/A N/A S6        30.06R
LADYSMITH      PTSUNNY   64  61  87 S13       30.08R
EAU CLAIRE     CLOUDY    65  59  81 S8        30.06S
MENOMONIE      CLOUDY    65  62  88 S5        30.06S
NEW RICHMOND   CLOUDY    65  62  90 S6        30.05R
OSCEOLA        CLOUDY    65  65 100 S6        30.06S
$$

WIZ003>005-009-010-017-018-281600-
NORTH CENTRAL WISCONSIN

CITY           SKY/WX    TMP DP  RH WIND       PRES   REMARKS
MANITOWISH WTR PTSUNNY   65  61  88 SW8       30.04S
ARBOR VITAE    PTSUNNY   65  60  84 SW7       30.05S
WOODRUFF       PTSUNNY   65  60  84 SW7       30.05S
RHINELANDER    PTSUNNY   66  58  75 S14       30.08S
EAGLE RIVER    PTSUNNY   65  59  79 SW7       30.05F
LAND O LAKES   PTSUNNY   66  59  78 SW7       30.06S
PHILLIPS       PTSUNNY   65  60  85 SW7       30.05S
TOMAHAWK       PTSUNNY   63  58  85 S3        30.08S
MEDFORD        CLOUDY    64  60  87 SW13      30.09R
MERRILL        CLOUDY    64  60  87 SW3       30.09R
$$

WIZ029-030-035-036-043>047-281600-
CENTRAL WISCONSIN

CITY           SKY/WX    TMP DP  RH WIND       PRES   REMARKS
WAUSAU         CLOUDY    66  59  78 SW8       30.09R
MOSINEE        PTSUNNY   63  61  94 SW8       30.12R
MARSHFIELD     CLOUDY    64  57  78 SW8       30.10R
STEVENS POINT  CLOUDY    63  57  82 SW9       30.11R
WAUPACA        CLOUDY    66  60  79 S7        30.11S
WAUTOMA        NOT AVBL
WISC RAPIDS    CLOUDY    65  58  78 SW6       30.11S
CAMP DOUGLAS   NOT AVBL
$$

WIZ011>013-019>022-031-037>040-048>050-281600-
NORTHEAST WISCONSIN

CITY           SKY/WX    TMP DP  RH WIND       PRES   REMARKS
ANTIGO         PTSUNNY   64  59  85 SW8       30.10R
SHAWANO        PTSUNNY   68  60  74 S7        30.10S
OCONTO         MOSUNNY   66  60  80 SW6       30.09F
STURGEON BAY   MOSUNNY   68  57  68 S9        30.13S
GREEN BAY      PTSUNNY   68  59  73 SW13      30.12S
MANITOWOC      NOT AVBL
APPLETON       PTSUNNY   64  55  72 S9        30.11R
CLINTONVILLE   PTSUNNY   66  59  77 S10       30.10S
OSHKOSH        CLOUDY    66  58  75 S8        30.12R
$$

WIZ032>034-041-042-053>061-281600-
SOUTHWEST WISCONSIN

CITY           SKY/WX    TMP DP  RH WIND       PRES   REMARKS
LA CROSSE      LGT RAIN  65  61  87 S3        30.08S
SPARTA         DRIZZLE   64  58  79 CALM      30.10R
VIROQUA        CLOUDY    62  62 100 CALM      30.10S
BOSCOBEL       CLOUDY    64  61  90 CALM      30.10R
PRAIRIE DU CHI CLOUDY    64  58  80 E5        30.08R
PLATTEVILLE    CLOUDY    63  61  94 SE5       30.10S
$$

WIZ056-057-062-063-064-067-068-281600-
SOUTH CENTRAL WISCONSIN

CITY           SKY/WX    TMP DP  RH WIND       PRES   REMARKS
REEDSBURG      DRIZZLE   61  59  92 S3        30.10S
BARABOO/DELLS  CLOUDY    63  57  82 S5        30.11S
LONE ROCK      NOT AVBL
MINERAL POINT  CLOUDY    63  59  88 SE5       30.10S
MADISON        CLOUDY    64  57  78 S8        30.11S
MIDDLETON      CLOUDY    65  58  78 S5        30.11S
WATERTOWN      CLOUDY    65  62  90 S3        30.12F
MONROE         CLOUDY    63  59  88 S6        30.12R
JANESVILLE     PTSUNNY   64  61  88 VRB5      30.12F
$$

WIZ051-052-058>065-066-070>072-281600-
SOUTHEAST WISCONSIN

CITY           SKY/WX    TMP DP  RH WIND       PRES   REMARKS
MILWAUKEE      PTSUNNY   70  58  65 SW7       30.14S
WAUKESHA       SUNNY     66  57  72 CALM      30.15S
MILWAUKEE/TIMM SUNNY     70  55  60 SW5       30.14S
RACINE         PTSUNNY   71  58  63 S5        30.16R
BURLINGTON     PTSUNNY   66  58  77 S5        30.14S
KENOSHA        PTSUNNY   71  60  68 SW7       30.15R
FOND DU LAC    CLOUDY    68  59  73 S8        30.13S
SHEBOYGAN      PTSUNNY   68  60  75 SW7       30.13S
WEST BEND      PTSUNNY   66  57  72 CALM      30.14S
JUNEAU         CLOUDY    64  58  78 S7        30.13F
$$

LSZ147-162-281600-
LAKE SUPERIOR

STATION/POSITION TIME  TEMP    WIND        PRES    WAVE
                       AIR SEA DIR/SP/G            HT/PER
                 (UTC) (F)     (DEG/KT/KT) (MB)    (FT/S)
W MID LAKE BUOY  1350   58 55  200/  8/ 10 1014.8F   0
DEVILS ISLAND    1400   62     220/  6/  8 1014.8F
PORT WING        1400   66     210/  8/ 10 1014.9
SAXON HARBOR     1400   68     200/  7/ 14 1014.9F
$$

LMZ867-665-643>646-281600-
LAKE MICHIGAN

STATION/POSITION TIME  TEMP    WIND        PRES    WAVE
                       AIR SEA DIR/SP/G            HT/PER
                 (UTC) (F)     (DEG/KT/KT) (MB)    (FT/S)
CHAMBERS ISLAND  1400   64     180/  4/ 11 1019.3S
S GREEN BAY BUOY 1400   63     190/ 12/ 14 1020.6F
N MID LAKE BUOY  1350   62 64  210/ 16/ 17 1019.2F   3/ 5
NORTHPORT PIER   1400   65     150/  5/  7 1019.3S
SISTER BAY       1419   70     250/ 11/ 15   N/A
ALGOMA LAKESHORE 1344             CALM       N/A
KEWAUNEE LAKESHO 1400   50     170/  7/  8 1018.9F
SHEBOYGAN LAKESH 1400   54     160/  7/  8 1020.7F
PORT WASHINGTON  1440   54     130/  3/  3 1021.0F
ATWATER BUOY     1400   53 47   CALM  /  2 1021.9F
MILWAUKEE LAKESH 1400   59      90/  1/  1   N/A
S MID LAKE BUOY  1350   67 67  180/ 10/ 10 1020.6F   2/ 4
KENOSHA   LAKESH 1400   60     170/  4/  4 1020.7S
$$

TC  - TEMPERATURE IN CELSIUS
VSB - VISIBILITY IN STATUTE MILES
WCI - WIND CHILL INDEX
HX  - HEAT INDEX



USA.gov is the U.S. government's official web portal to all federal, state and local government web resources and services.